Location: Grandview
(34.8900°N, 117.1058°W)
Time: 00:32:00
(UTC-07:00)

Vanguard 2 - Visible Passes

Search period start: 21 July 2018 00:00
Search period end: 31 July 2018 00:00
Orbit: 553 x 2939 km, 32.9° (Epoch: 20 July)

Date Brightness Start Highest point End Pass type
(mag) Time Alt. Az. Time Alt. Az. Time Alt. Az.
21 Jul 10.4 00:54:55 10° W 01:08:54 41° SW 01:08:54 41° SW visible
21 Jul 10.4 20:47:50 10° W 21:04:15 84° S 21:21:49 10° E visible
21 Jul 10.2 22:59:46 10° W 23:17:26 67° SSW 23:23:35 46° SE visible
22 Jul 10.7 01:13:51 10° W 01:24:56 31° WSW 01:24:56 31° WSW visible
22 Jul 10.3 21:06:07 10° W 21:22:41 82° S 21:38:21 15° ESE visible
22 Jul 10.1 23:18:12 10° W 23:35:31 59° SSW 23:39:42 50° SSE visible
23 Jul 11.1 01:33:13 10° W 01:41:02 22° WSW 01:41:02 22° WSW visible
23 Jul 10.3 21:24:25 10° W 21:41:05 77° SSW 21:54:29 22° ESE visible
23 Jul 10.3 23:36:43 10° W 23:53:27 50° SSW 23:55:50 48° SSW visible
24 Jul 11.4 01:53:23 10° W 01:57:11 15° WSW 01:57:11 15° WSW visible
24 Jul 10.3 21:42:43 10° W 21:59:24 71° SSW 22:10:40 29° SE visible
24 Jul 10.5 23:55:25 10° W 00:11:16 41° SW 00:12:02 41° SSW visible
25 Jul 10.4 19:50:10 10° W 20:04:36 83° S 20:22:48 10° E visible
25 Jul 10.4 22:01:03 10° W 22:17:37 64° SSW 22:26:54 34° SE visible
26 Jul 10.8 00:14:23 10° W 00:28:16 33° SW 00:28:16 33° SW visible
26 Jul 10.4 20:08:22 10° W 20:23:00 80° S 20:41:08 10° ESE visible
26 Jul 10.4 22:19:26 10° W 22:35:43 56° SSW 22:43:12 38° SSE visible
27 Jul 11.1 00:33:51 10° W 00:44:33 24° SW 00:44:33 24° SW visible
27 Jul 10.4 20:26:36 10° W 20:41:21 75° SSW 20:58:10 13° ESE visible
27 Jul 10.5 22:37:56 10° W 22:53:43 47° SSW 22:59:32 38° S visible
28 Jul 11.4 00:54:14 10° W 01:00:55 17° WSW 01:00:55 17° WSW visible
28 Jul 10.4 20:44:51 10° W 20:59:38 68° SSW 21:14:34 18° SE visible
28 Jul 10.7 22:56:39 10° W 23:11:37 39° SW 23:15:57 35° S visible
29 Jul 11.7 01:17:14 10° WSW 01:17:19 10° WSW 01:17:19 10° WSW visible
29 Jul 10.5 21:03:08 10° W 21:17:51 60° SSW 21:31:01 21° SE visible
29 Jul 10.9 23:15:42 10° W 23:29:26 30° SW 23:32:24 29° SSW visible
30 Jul 10.6 21:21:29 10° W 21:35:59 52° SSW 21:47:32 24° SSE visible
